Location: Dugenta
(41.1333°N, 14.4500°E)
Time: 13:43:33
(UTC+00:00)

Cosmos 1666 - Pass Details

Date: 03 March 2021
Orbit: 497 x 518 km, 82.5° (Epoch: 13 April)

Event Time Altitude Azimuth Distance (km) Brightness Sun altitude
Rises 18:26:47 0° 183° (S) 2,570 6.2 -18.0°
Reaches altitude 10° 18:28:53 10° 182° (S) 1,692 5.2 -18.3°
Maximum altitude 18:32:35 77° 97° (E) 516 2.4 -19.0°
Drops below altitude 10° 18:36:19 10° 11° (N) 1,711 5.3 -19.7°
Sets 18:38:27 0° 10° (N) 2,602 6.3 -20.1°
